Meteo Giornale » Osservazioni meteo Italia » Torino-Caselle

ore: 21:50 - Osservazioni Meteo Torino-Caselle
Lat. 45° 13' N Lon. 7° 39' E Alt. 301 metri s.l.m.

sereno Europe/Rome

6 °C

Sereno

Temp. 24 Ore

2 °C

14 °C

Ovest/Sud-Ovest

7.4 Km/h

Dew point 2 °C

Umidità 75 %

Visibilità  10 Km

Il sole sorge alle ore 07:22

Il sole tramonta alle ore 18:03

Data e Ora Cielo e Fenomeni T °C DP °C Um. % Pres. hPa Vis. km Vento km/h
Oggi h: 21:50 sereno Sereno 6 2 75 1022 10 O/SO 7.4
Oggi h: 21:20 sereno Sereno 7 2 70 1021 10 N 3.7
Oggi h: 20:50 sereno Sereno 8 2 65 1021 10 N 5.5
Oggi h: 20:20 sereno Sereno 7 2 70 1021 10 N 5.5
Oggi h: 19:50 sereno Sereno 9 2 61 1021 10 NO 7.4
Oggi h: 19:20 sereno Sereno 9 2 61 1021 10 N 5.5
Oggi h: 18:50 sereno Sereno 11 2 53 1020 10 O/NO 7.4
Oggi h: 18:20 sereno Sereno 12 2 50 1020 10 O/SO 7.4
Oggi h: 17:50 sereno Sereno 12 2 50 1020 10 N 1.8
Oggi h: 17:20 sereno Sereno 14 2 44 1020 10 N 1.8
Oggi h: 16:50 sereno Sereno 14 2 44 1020 10 N 1.8
Oggi h: 16:20 sereno Sereno 14 2 44 1020 10 N 5.5
Oggi h: 15:50 sereno Sereno 14 2 44 1020 10 N 5.5
Oggi h: 15:20 sereno Sereno 14 2 44 1020 10 SO 9.3
Oggi h: 14:50 sereno Sereno 13 2 47 1020 10 SO 9.3
Oggi h: 14:20 sereno Sereno 13 2 47 1021 10 SO 9.3
Oggi h: 13:50 sereno Sereno 13 2 47 1021 10 S 11.1
Oggi h: 13:20 sereno Sereno 12 2 50 1021 10 S 9.3
Oggi h: 12:50 sereno Sereno 11 3 57 1022 10 N 5.5
Oggi h: 12:20 sereno Sereno 11 3 57 1022 10 N 5.5
Oggi h: 11:50 sereno Sereno 11 3 57 1022 10 N 5.5
Oggi h: 11:20 sereno Sereno 9 3 66 1022 10 N 5.5
Oggi h: 10:50 sereno Sereno 9 3 66 1022 10 N 5.5
Oggi h: 10:20 sereno Sereno 8 3 70 1022 10 N 5.5
Oggi h: 09:50 sereno Sereno 7 2 70 1022 10 SO 7.4
Oggi h: 09:20 sereno Sereno 6 1 70 1022 10 N 5.5
Oggi h: 08:50 sereno Sereno 4 0 75 1022 10 O 9.3
Oggi h: 08:20 sereno Sereno 3 0 80 1022 10 O 9.3
Oggi h: 07:50 sereno Sereno 2 -1 80 1021 10 O 9.3
Oggi h: 07:20 sereno Sereno 2 -1 80 1021 10 O 7.4
Oggi h: 06:20 sereno Sereno 2 -1 80 1021 10 O/NO 7.4
Oggi h: 05:50 sereno Sereno 2 -1 80 1021 10 O/NO 9.3
Oggi h: 05:20 sereno Sereno 3 -1 74 1021 10 N 5.5
Oggi h: 04:50 sereno Sereno 2 -1 80 1021 10 O/NO 7.4
Oggi h: 04:20 sereno Sereno 3 -0 80 1021 10 O/NO 7.4
Oggi h: 03:50 sereno Sereno 3 -1 74 1021 10 NO 7.4
Oggi h: 03:20 sereno Sereno 3 -1 74 1021 10 O/NO 7.4
Oggi h: 02:50 sereno Sereno 3 -0 80 1022 10 O/NO 7.4
Oggi h: 02:20 sereno Sereno 4 -0 75 1022 10 NO 7.4
Oggi h: 01:50 sereno Sereno 3 -0 80 1022 10 O/NO 11.1
Oggi h: 01:20 sereno Sereno 3 -0 80 1022 10 O/NO 9.3
Oggi h: 00:50 sereno Sereno 4 -0 75 1022 10 O/NO 7.4
Oggi h: 00:20 sereno Sereno 5 0 70 1022 10 N 5.5
Ieri h: 23:50 sereno Sereno 6 -0 65 1022 8 O/NO 11.1
Ieri h: 23:20 sereno Sereno 6 -0 65 1022 8 O 9.3
Ieri h: 22:50 sereno Sereno 5 0 70 1022 7 N 5.5
Ieri h: 22:20 sereno Sereno 6 0 65 1022 8 N 3.7
Ieri h: 21:50 sereno Sereno 7 0 60 1022 8 N 5.5